Weather History for Anchialos, Greece

Change the Weather History Date:

Monday, January 21, 2013

  Actual Average Record
Temperature  
Mean Temperature 54 °F -  
Max Temperature 66 °F - - ()
Min Temperature 41 °F - - ()
Degree Days  
Heating Degree Days 12    
Growing Degree Days 4 (Base 50)    
Moisture  
Dew Point 44 °F    
Average Humidity 74    
Maximum Humidity 93    
Minimum Humidity 40    
Precipitation  
Precipitation 0.00 in - - ()
Sea Level Pressure  
Sea Level Pressure 29.73 in    
Wind  
Wind Speed 5 mph ()    
Max Wind Speed 16 mph    
Max Gust Speed -    
Visibility 6.2 miles    
Events Rain    
T = Trace of Precipitation, MM = Missing Value Source: Averaged Metar Reports

Daily Weather History Graph

Daily Weather History Graph

Search for Another Location

Airport:

Trip Planner

Search our weather history database for the weather conditions in past years. The results will help you decide how hot, cold, wet, or windy it might be!

Date:

Astronomy

Jan. 21, 2013 Rise Set
Actual Time 7:43 AM EET 5:36 PM EET
Civil Twilight 7:14 AM EET 6:05 PM EET
Nautical Twilight 6:42 AM EET 6:38 PM EET
Astronomical Twilight 6:10 AM EET 7:10 PM EET
Moon 1:04 PM EET (1/21) 2:54 AM EET (1/21)
Length of Visible Light 10h 50m
Length of Day
9h 52m
Waxing Gibbous, 72% of the Moon is Illuminated
Jan 21
Waxing Gibbous
Jan 27
Full
Feb 3
Last Quarter
Feb 10
New
Feb 17
First Quarter

Hourly Weather History & Observations

Time (EET) Temp. Windchill Dew Point Humidity Pressure Visibility Wind Dir Wind Speed Gust Speed Precip Events Conditions
12:50 AM 44.6 °F 42.2 °F 41.0 °F 87% 29.86 in 6.2 mi West 4.6 mph - N/A   Mostly Cloudy
1:50 AM 44.6 °F 42.2 °F 41.0 °F 87% 29.83 in 6.2 mi West 4.6 mph - N/A   Scattered Clouds
2:50 AM 42.8 °F 40.1 °F 39.2 °F 87% 29.83 in 6.2 mi WSW 4.6 mph - N/A   Scattered Clouds
3:50 AM 42.8 °F 40.1 °F 39.2 °F 87% 29.83 in 6.2 mi West 4.6 mph - N/A   Scattered Clouds
4:50 AM 41.0 °F 38.0 °F 39.2 °F 93% 29.80 in 6.2 mi SW 4.6 mph - N/A   Partly Cloudy
5:20 AM 42.8 °F 40.1 °F 39.2 °F 87% 29.80 in 6.2 mi SW 4.6 mph - N/A   Partly Cloudy
5:50 AM 41.0 °F - 39.2 °F 93% 29.80 in 6.2 mi Calm Calm - N/A   Mostly Cloudy
6:20 AM 41.0 °F 38.0 °F 39.2 °F 93% 29.80 in 6.2 mi SW 4.6 mph - N/A   Mostly Cloudy
6:50 AM 42.8 °F 40.1 °F 41.0 °F 93% 29.80 in 6.2 mi WSW 4.6 mph - N/A   Mostly Cloudy
7:20 AM 42.8 °F 40.1 °F 41.0 °F 93% 29.80 in 6.2 mi WSW 4.6 mph - N/A   Mostly Cloudy
7:50 AM 42.8 °F 40.1 °F 41.0 °F 93% 29.80 in 6.2 mi West 4.6 mph - N/A   Mostly Cloudy
8:20 AM 42.8 °F 40.1 °F 41.0 °F 93% 29.80 in 6.2 mi West 4.6 mph - N/A   Mostly Cloudy
8:50 AM 44.6 °F - 41.0 °F 87% 29.80 in 6.2 mi Calm Calm - N/A   Mostly Cloudy
9:20 AM 48.2 °F - 44.6 °F 87% 29.80 in 6.2 mi Calm Calm - N/A   Mostly Cloudy
9:50 AM 48.2 °F - 44.6 °F 87% 29.80 in 6.2 mi Calm Calm - N/A   Mostly Cloudy
10:20 AM 53.6 °F - 46.4 °F 77% 29.80 in 6.2 mi Calm Calm - N/A   Mostly Cloudy
10:50 AM 55.4 °F - 46.4 °F 72% 29.80 in 6.2 mi Calm Calm - N/A   Mostly Cloudy
11:20 AM 55.4 °F - 46.4 °F 72% 29.77 in 6.2 mi Calm Calm - N/A   Mostly Cloudy
11:50 AM 55.4 °F - 48.2 °F 77% 29.77 in 6.2 mi East 3.5 mph - N/A   Mostly Cloudy
12:20 PM 59.0 °F - 46.4 °F 63% 29.74 in 6.2 mi East 10.4 mph - N/A   Mostly Cloudy
12:50 PM 62.6 °F - 46.4 °F 55% 29.71 in 6.2 mi East 12.7 mph - N/A   Mostly Cloudy
1:20 PM 60.8 °F - 48.2 °F 63% 29.68 in 6.2 mi East 11.5 mph - N/A   Mostly Cloudy
1:50 PM 62.6 °F - 48.2 °F 59% 29.68 in 6.2 mi ESE 11.5 mph - N/A   Mostly Cloudy
2:20 PM 64.4 °F - 44.6 °F 49% 29.65 in 6.2 mi SE 13.8 mph - N/A   Scattered Clouds
2:50 PM 64.4 °F - 44.6 °F 49% 29.65 in 6.2 mi ESE 13.8 mph - N/A   Scattered Clouds
3:20 PM 66.2 °F - 41.0 °F 40% 29.65 in 6.2 mi SE 16.1 mph - N/A   Scattered Clouds
4:20 PM 62.6 °F - 42.8 °F 48% 29.62 in 6.2 mi SE 15.0 mph - N/A   Scattered Clouds
4:50 PM 62.6 °F - 42.8 °F 48% 29.62 in 6.2 mi SE 12.7 mph - N/A   Mostly Cloudy
5:20 PM 62.6 °F - 42.8 °F 48% 29.62 in 6.2 mi SE 12.7 mph - N/A   Mostly Cloudy
5:50 PM 60.8 °F - 42.8 °F 52% 29.62 in 6.2 mi SE 13.8 mph - N/A   Mostly Cloudy
6:20 PM 62.6 °F - 44.6 °F 52% 29.62 in 6.2 mi SE 13.8 mph - N/A   Mostly Cloudy
6:50 PM 60.8 °F - 44.6 °F 55% 29.62 in 6.2 mi SE 9.2 mph - N/A   Overcast
7:20 PM 55.4 °F - 50.0 °F 82% 29.65 in 5.6 mi South 9.2 mph - N/A Rain Rain
7:50 PM 53.6 °F - 48.2 °F 82% 29.65 in 6.2 mi SSE 5.8 mph - N/A   Mostly Cloudy
8:50 PM 51.8 °F - 48.2 °F 88% 29.65 in 6.2 mi WNW 3.5 mph - N/A   Mostly Cloudy
9:50 PM 50.0 °F - 46.4 °F 87% 29.65 in 6.2 mi West 3.5 mph - N/A   Scattered Clouds
10:50 PM 48.2 °F - 42.8 °F 82% 29.62 in 6.2 mi West 4.6 mph - N/A   Scattered Clouds
11:50 PM 46.4 °F - 41.0 °F 81% 29.65 in 6.2 mi Calm Calm - N/A   Scattered Clouds